WESTFORD NEEDLES, 2997

Orbit data source: Space-Track

WESTFORD NEEDLES, 2997 is space debris in LEO originally from a launch on Thu, 09 May 1963 UTC launched from the Air Force Western Test Range (AFWTR). Debris objects in space refer to the collection of defunct objects orbiting the Earth. Examples of debris include non-operational satellites, rocket bodies, and fragments generated from explosions, collisions, or faulty payload assembly.

Loading next visibility...
Identifier
2997, 1963-014AU
Orbit
LEO
Country
Flag of USUS
Related business
Manufacturer
Unknown
Mission
Spacecraft
Bus & Motor
Unknown
Mass
Unknown
Launch date (UTC)
1963-05-09 (63 years ago)
Launch vehicle
Unknown
Launch site
Air Force Western Test Range (AFWTR)
Object type
Payload
Rocket body
Debris
Shape & HBR
Unknown shape, 0.3 m
Radar Cross Section
Medium (>0.1 m² and <1 m²)

Expand to show TLE details & history
Last TLE update: 3 days ago

TLE from 3 days ago
0 WESTFORD NEEDLES
1 02997U 63014AU  25307.42062969  .00002733  00000-0  76108+0 0  9992
2 02997  86.7910 192.3673 0872039 133.1800 234.5361  8.77769596296652
Epoch: 2025-11-03T10:05Z
TLE epoch observation values (Epoch: 2025-11-03T10:05:42.405Z)
Latitude
-0.00005°
Longitude
-1.98165°
Altitude
4,099.739 km
Speed
5.996 km/s
True Right ascension
12h 49m 28s
True Declination
0° 00' 00"
Sunlit
Object was in daylight at epoch
Visualization orbit readout
Latitude
Unknown
Longitude
Unknown
Altitude
Unknown
Speed
Unknown
Apparent Right ascension
Unknown
Apparent Declination
Unknown
Sunlit
N/A
Visualization observer readout
Local Sidereal Time
16:32:04
Azimuth
Unknown
Elevation
Unknown
Doppler factor
Unknown
Orbital elements
Apogee altitude
4,412.047 km
Perigee altitude
2,681.1 km
Semi-major axis
9,924.711 km
Eccentricity
0.0872
Inclination
86.791°
RAAN
192.3673°
Arg. of periapsis
133.18°
True anomaly
226.90472°
Mean anomaly
234.5361°
Eccentric anomaly
230.67126°
Mean motion
2.19516 °/min
Orbital period
164 mins
BSTAR
0.76108
Loading maneuver chart data...
Computing Atmospheric mass density...

Documentation

Showing up to 5 results
|